Theta_e
318 316 315 315 317 320 322 321 318 320 319 314 315 316 318 320 320 321 319 319 319 318 316 317 318 318 318 317 317 316 316 316 317 315 317 327 324 321 322 319 320 320 321 322 322 324 324 326 330 333 336 336 336 337 336 337 337 337 337 337 337 337 338 337 337 336 337 336 335 334 333 335 335 336 337 338 338 338 337 337 336 336 336 336 336 336 337 337 337 338 339 340 339 339 339 339 339
319 316 315 317 319 321 322 321 318 317 316 313 316 317 319 320 319 320 319 320 320 318 316 316 317 316 315 315 315 316 318 318 319 320 324 326 323 322 320 319 320 320 321 321 322 323 324 325 327 331 335 335 336 336 336 336 336 336 336 336 336 336 337 337 337 337 336 337 337 336 334 334 334 335 335 336 336 336 336 336 336 336 337 337 337 337 337 337 337 338 339 339 339 339 339 339 339
321 316 316 319 321 321 321 321 317 314 314 313 315 319 320 319 319 319 319 319 317 316 315 315 315 316 316 316 316 317 320 319 318 319 322 322 325 325 319 318 319 320 321 321 322 322 323 324 325 329 332 334 335 335 335 335 335 335 334 335 335 335 336 336 336 337 336 336 337 336 336 335 334 334 334 334 335 335 335 335 335 335 335 336 336 336 336 336 337 338 339 339 339 339 339 338 338
321 316 317 320 321 321 321 320 318 314 313 313 314 319 320 319 319 319 320 318 317 315 315 316 316 316 316 317 317 317 318 319 319 318 321 322 326 326 318 318 319 319 321 320 320 320 322 323 324 326 330 331 332 334 335 335 334 334 333 333 334 333 334 335 335 336 336 336 336 336 336 336 336 335 335 335 335 335 335 335 334 334 334 334 334 334 335 336 336 337 338 338 338 338 338 338 338
321 316 317 319 321 321 320 319 319 316 313 314 315 319 320 318 318 319 319 318 317 316 316 316 316 316 315 316 316 317 319 320 322 319 324 327 325 323 318 317 318 318 320 319 318 319 320 321 323 325 327 329 330 333 334 335 333 333 333 333 333 332 333 334 334 335 335 336 335 335 336 336 336 336 336 336 336 336 336 335 335 334 334 335 335 336 336 337 337 337 338 337 338 338 338 338 338
320 318 319 319 320 319 319 317 316 315 316 319 317 319 320 318 318 317 318 318 317 316 316 316 317 317 316 317 316 319 320 321 324 321 324 328 325 322 318 317 317 318 319 318 318 318 318 319 321 323 325 327 329 331 333 334 333 332 331 332 332 333 332 332 333 334 334 335 334 334 335 335 335 336 336 336 336 336 336 336 336 336 336 336 336 336 337 337 337 337 337 337 337 338 337 337 338
318 319 321 319 319 319 319 316 314 316 318 320 318 319 319 319 319 317 318 320 318 317 316 317 317 317 318 318 317 320 319 320 326 325 325 326 325 322 318 317 317 317 318 317 317 317 317 318 319 321 323 325 326 328 332 332 333 332 331 331 332 332 332 332 332 332 333 333 333 333 334 334 334 334 335 335 335 336 336 335 336 336 336 336 336 336 336 336 336 336 336 336 337 337 336 337 337
317 319 321 319 321 321 319 316 317 318 318 318 318 318 318 319 318 318 320 320 320 319 317 317 318 318 319 318 318 322 318 317 322 324 324 326 325 321 318 317 318 317 318 317 317 318 318 319 319 320 321 323 324 327 331 330 331 331 331 331 331 332 332 331 330 331 332 332 333 332 333 333 333 334 334 334 334 334 334 335 335 335 335 335 335 335 335 336 336 336 336 336 336 336 336 337 337
318 320 320 319 320 319 317 317 318 319 319 318 318 318 317 317 317 318 321 321 321 320 319 319 318 319 320 319 320 323 321 319 319 320 321 327 326 320 318 318 318 318 318 318 318 318 318 319 320 320 320 322 322 324 329 329 329 330 330 329 330 332 331 330 330 331 332 331 332 332 332 332 332 333 333 333 333 334 334 334 334 335 335 335 335 335 335 335 336 335 336 336 336 336 336 337 336
319 319 319 319 319 316 315 316 318 319 319 319 318 317 317 317 316 317 319 321 322 321 322 320 318 319 320 320 320 322 323 319 319 321 322 326 326 320 318 318 318 319 318 318 318 319 319 320 320 321 320 321 321 322 326 327 328 328 328 328 329 330 329 329 330 331 331 331 332 332 332 332 332 332 332 333 333 333 333 333 334 334 334 334 335 335 334 334 335 335 335 335 335 336 336 336 336
319 319 319 318 318 315 314 315 317 319 319 318 317 317 317 317 316 317 318 320 321 320 321 320 320 320 321 320 320 322 322 318 321 326 324 324 326 322 319 318 319 319 319 319 319 319 319 320 321 321 321 322 321 322 323 323 324 325 326 327 328 328 328 329 331 331 331 331 331 331 331 332 333 332 333 334 332 333 333 333 333 333 334 334 334 334 334 334 334 335 335 335 335 335 335 335 335
318 320 319 317 317 316 316 316 318 319 320 319 318 318 317 316 316 317 319 319 321 320 320 321 322 323 323 322 322 323 323 322 322 324 323 323 325 324 319 318 319 319 319 319 319 319 319 320 321 321 322 322 322 322 323 321 320 321 324 326 326 327 328 330 330 330 331 331 330 330 331 332 332 332 333 333 333 333 333 333 332 331 332 331 331 330 331 331 332 333 334 334 334 335 335 335 335
318 319 319 317 318 318 318 318 319 319 320 319 318 317 315 315 316 317 318 318 320 320 321 321 321 323 323 323 323 323 326 325 321 320 322 323 325 325 321 319 319 319 319 319 319 319 319 320 320 321 322 322 323 323 323 323 321 320 321 322 325 327 328 329 329 329 330 330 330 329 331 332 331 331 332 331 331 332 332 331 330 330 330 329 328 328 328 328 329 329 330 330 330 330 330 331 333
318 319 318 318 318 319 319 318 319 319 318 318 317 316 315 316 316 315 316 318 318 318 321 321 320 321 322 323 321 321 325 323 319 320 322 324 326 325 322 319 319 319 319 319 319 320 320 320 320 321 322 323 323 323 324 323 323 321 320 320 322 325 327 328 328 328 328 329 329 329 330 331 331 330 330 330 329 330 330 329 328 328 328 329 327 327 327 327 327 326 326 326 326 326 326 327 328
317 319 319 319 319 319 319 318 319 319 318 318 316 314 315 315 314 314 315 316 316 315 318 320 319 320 323 323 321 321 323 319 319 320 322 324 326 325 323 320 320 320 319 319 319 319 319 320 320 320 321 322 323 324 324 323 323 322 322 321 321 322 325 327 327 326 327 328 328 328 329 329 329 329 329 328 328 328 327 326 326 326 327 327 326 326 327 326 326 325 325 326 327 326 326 325 325
317 318 319 320 319 320 319 318 319 318 318 318 315 313 315 316 313 314 314 313 315 315 315 318 319 320 322 322 321 321 320 317 318 319 322 324 325 326 324 321 320 320 320 319 319 319 319 319 320 320 321 322 322 323 324 323 323 323 323 322 321 321 323 324 324 323 325 326 327 327 326 326 327 327 327 327 327 326 325 324 324 324 325 325 325 325 325 325 324 324 324 325 324 324 324 322 321
316 318 320 319 319 320 319 318 319 317 318 318 316 314 315 316 314 314 313 312 313 314 314 315 318 320 319 318 320 321 319 318 318 318 322 326 327 327 327 325 323 321 320 319 319 319 318 319 319 320 321 321 321 322 322 323 322 322 323 323 322 322 321 321 321 322 323 324 325 324 324 324 325 325 326 326 326 325 324 323 322 323 322 323 323 323 323 323 322 322 322 321 321 321 320 320 320
317 319 320 318 319 320 318 318 318 318 318 318 318 316 314 315 315 314 313 313 314 314 314 314 315 318 317 318 319 318 318 318 317 319 323 328 328 328 328 327 326 325 322 321 319 319 319 318 319 320 320 320 321 321 321 322 322 322 323 323 323 322 321 321 321 321 322 322 322 322 323 323 324 325 326 326 325 324 323 322 322 321 321 321 322 322 322 323 323 323 323 322 322 321 321 322 324
316 319 319 318 319 319 317 318 318 318 318 317 316 315 314 314 314 314 313 313 314 314 315 315 315 315 316 318 318 317 317 317 317 320 323 325 327 328 327 326 327 327 325 323 320 319 319 318 319 320 320 320 321 321 321 321 322 322 323 323 322 322 322 322 322 321 321 321 321 321 322 323 324 325 325 325 325 324 323 322 321 320 320 319 321 322 323 323 324 324 324 324 323 323 323 324 325
315 317 317 318 317 316 315 316 317 316 316 315 314 314 313 314 313 313 313 313 314 314 314 315 315 315 315 317 318 318 319 318 318 320 323 323 325 326 326 325 326 326 325 324 322 320 319 319 319 319 320 320 320 321 320 321 322 322 322 322 322 322 322 322 322 322 322 323 322 322 322 324 325 325 325 325 324 323 322 321 321 320 320 319 320 322 323 323 323 322 323 323 324 323 323 323 324
314 314 315 316 314 315 315 314 315 315 314 314 314 314 314 314 313 313 314 314 314 314 315 315 315 315 315 315 316 318 319 319 319 321 323 323 324 325 325 324 323 324 324 323 323 321 320 320 319 319 320 320 321 320 320 320 321 321 321 322 322 322 322 322 322 323 323 323 323 323 323 324 325 325 325 324 323 323 322 321 321 321 321 321 320 321 321 322 323 323 322 323 323 323 323 323 323
313 313 314 314 313 314 314 313 314 314 314 315 315 315 315 314 313 313 314 315 315 315 315 315 315 315 315 315 315 317 317 317 318 320 322 322 323 324 323 322 320 322 322 320 320 320 320 320 319 319 320 320 320 320 320 319 320 321 321 322 322 322 322 322 322 323 322 323 324 324 324 324 324 324 324 323 322 322 322 321 321 321 321 321 320 320 320 320 321 322 322 322 322 322 323 322 322
314 314 313 313 313 313 313 313 313 314 315 315 315 315 314 314 313 314 314 314 315 315 315 315 315 315 315 315 315 315 315 315 316 317 319 320 322 322 321 321 320 321 321 319 319 320 321 320 319 318 319 320 320 321 320 319 320 321 322 322 322 322 321 321 322 322 321 322 323 323 323 323 323 322 322 322 322 321 321 321 321 321 321 320 320 320 320 320 320 320 320 321 321 322 322 322 322
314 315 314 313 313 313 313 313 313 314 315 315 315 314 314 314 314 314 314 314 314 314 314 314 315 315 315 314 314 314 313 314 315 316 316 317 318 318 318 318 318 320 321 320 318 319 320 321 320 318 319 320 320 321 320 319 320 321 322 322 322 321 320 320 321 321 321 321 322 322 322 321 321 321 321 321 320 320 319 319 319 319 319 319 319 319 319 319 319 319 319 320 320 321 321 321 321
314 314 314 313 313 314 313 314 313 313 314 315 314 314 313 313 313 313 313 313 312 313 313 313 314 314 314 313 313 312 312 313 314 314 315 315 315 315 315 315 315 317 318 318 317 317 318 320 320 318 319 320 320 321 320 320 320 321 322 321 321 321 319 319 319 319 319 320 321 321 320 320 320 320 320 319 319 318 318 318 318 317 318 317 317 318 318 318 318 318 318 319 319 320 320 320 320
313 313 314 314 314 314 314 313 313 312 313 313 313 313 312 312 312 312 312 312 312 312 312 313 313 313 313 312 311 311 311 312 313 314 314 314 314 313 313 313 314 315 315 316 318 318 318 320 320 319 319 319 320 321 320 319 320 321 321 320 320 319 318 318 318 317 317 317 318 319 319 319 319 319 319 318 318 318 317 317 317 316 316 317 316 316 317 317 317 317 317 317 318 318 318 318 318
313 314 314 314 314 314 313 313 312 311 311 311 312 312 312 312 312 312 311 311 312 312 312 312 312 312 311 311 311 311 311 311 312 312 312 312 312 313 313 313 313 313 313 315 317 319 318 319 321 319 319 319 320 321 320 320 320 321 321 320 319 318 317 316 315 316 316 316 316 317 317 318 318 317 317 317 317 316 316 316 316 315 315 316 315 315 315 316 316 315 315 315 316 316 316 316 316
313 314 314 313 313 313 312 311 311 311 311 311 311 311 311 311 311 312 311 311 310 310 311 311 311 311 311 311 311 310 311 311 312 311 311 312 312 312 312 312 313 313 313 314 315 318 318 318 320 319 319 319 320 321 320 320 320 321 321 319 317 316 316 316 315 315 314 314 316 316 316 317 316 315 316 316 316 315 315 315 314 314 314 314 313 313 314 314 314 314 313 313 314 315 314 313 313
314 314 314 313 313 313 311 310 310 310 310 310 310 311 311 311 312 311 310 309 309 310 310 311 311 311 311 311 311 310 311 311 311 311 311 311 311 311 311 311 311 311 312 313 314 317 317 318 319 319 319 319 320 321 320 320 320 320 319 317 316 316 317 317 316 315 315 315 316 316 316 316 315 315 315 314 313 313 313 313 312 312 312 312 312 312 312 312 313 313 312 312 311 312 313 312 313
313 313 314 314 312 312 310 310 310 310 310 310 310 311 311 311 311 310 309 309 309 310 310 311 311 311 311 311 311 311 311 312 312 312 312 312 311 311 311 310 310 309 310 312 313 313 315 318 319 317 318 319 320 321 320 320 320 320 317 315 316 317 317 316 316 316 315 315 315 315 315 315 315 314 314 312 312 312 312 311 311 311 311 311 312 311 311 311 312 311 311 311 310 311 311 310 311
313 312 313 314 312 311 310 310 310 310 311 310 311 311 311 311 311 311 310 309 309 310 310 310 311 310 311 311 311 311 311 312 312 313 312 312 311 310 309 309 308 307 308 310 310 310 313 318 318 317 318 320 321 321 320 320 319 318 315 315 317 317 316 316 315 315 314 313 313 313 313 313 313 313 312 312 311 310 310 309 310 310 310 310 310 310 310 310 310 310 310 310 310 309 309 309 309
313 311 312 314 312 311 311 311 310 310 311 310 311 312 312 311 311 311 311 310 310 310 310 311 311 311 311 311 311 311 311 312 313 313 312 312 311 309 308 308 307 307 307 308 309 309 312 316 317 317 319 320 320 319 319 319 317 315 314 315 318 317 315 315 313 312 311 311 311 310 310 310 310 311 311 311 311 310 309 309 310 310 309 309 309 309 309 308 308 308 308 308 308 308 308 308 308
314 312 312 313 313 313 312 311 310 310 311 311 312 312 312 311 311 311 310 311 311 311 311 311 311 311 312 312 312 312 312 312 313 313 312 312 311 309 308 307 307 306 306 307 309 310 312 315 316 317 318 318 318 318 318 317 314 313 312 314 316 315 314 314 312 311 310 309 309 308 307 307 308 309 310 310 309 309 309 309 309 309 308 308 308 308 308 307 307 307 305 305 306 306 306 306 307
312 312 313 313 313 313 313 312 311 311 311 312 312 312 312 312 311 311 311 311 312 311 311 311 311 312 312 312 312 312 312 312 312 312 313 312 311 309 307 307 307 306 306 308 309 311 313 314 316 317 316 317 318 318 316 314 312 312 312 313 314 313 313 313 311 310 309 307 306 305 305 306 306 307 308 307 307 308 308 308 308 307 307 306 306 306 306 306 305 304 304 303 304 304 304 304 305
312 313 313 313 313 313 313 312 312 311 312 312 312 312 312 311 311 312 311 311 311 312 312 311 311 311 312 312 312 312 312 312 312 313 312 311 311 309 308 307 307 307 307 308 310 312 313 314 315 315 315 315 316 315 314 311 310 312 313 312 312 312 312 311 310 308 307 305 304 304 304 305 305 306 306 305 305 306 306 304 303 305 305 304 305 305 305 304 303 303 303 302 302 302 302 303 303
313 313 313 313 313 313 313 312 311 311 312 312 312 312 312 312 312 312 311 311 311 312 312 312 312 312 312 312 312 312 312 312 313 313 312 311 310 308 308 308 308 308 308 309 310 312 313 313 313 313 313 313 313 312 310 308 309 312 312 310 310 310 310 309 307 306 305 304 303 303 304 304 304 305 304 302 303 304 304 301 301 303 304 303 303 303 303 303 302 301 301 301 301 300 300 301 302
313 313 313 313 313 313 312 312 311 311 312 312 312 312 312 312 312 312 312 312 312 312 312 312 312 312 312 312 312 312 312 312 313 314 311 310 309 307 308 308 308 308 308 309 310 312 313 312 312 312 311 312 311 310 309 309 311 311 310 308 308 308 308 307 305 304 303 302 302 303 303 304 304 303 300 299 302 303 303 302 301 302 302 302 302 302 302 302 301 300 299 299 299 298 299 299 300
313 313 313 313 313 313 312 312 311 311 312 312 312 312 312 312 312 312 312 312 312 312 312 312 311 312 312 312 312 312 312 312 313 314 312 310 309 308 308 309 309 309 309 309 311 312 311 311 311 311 310 311 310 309 310 311 312 311 308 307 306 305 304 303 303 302 302 301 302 302 303 303 303 302 300 301 302 302 302 301 301 301 301 301 300 300 300 300 300 299 299 298 298 297 297 297 299
313 313 313 313 313 312 312 312 311 311 311 312 312 312 313 312 312 313 312 312 312 312 311 312 311 311 311 311 312 312 312 312 312 313 312 311 311 310 309 309 309 309 309 309 311 311 310 310 310 309 310 310 308 309 311 312 311 310 308 306 305 303 300 300 301 301 301 301 302 302 302 302 302 302 301 301 301 301 300 300 299 298 298 298 297 297 297 297 298 298 298 298 297 297 296 296 297
313 313 313 313 313 313 313 312 312 311 312 312 312 313 313 312 313 313 312 312 312 312 312 312 311 311 311 311 312 311 311 312 312 312 311 311 310 310 310 310 309 309 309 309 310 310 310 310 309 309 309 310 309 309 311 311 310 309 307 305 304 303 301 300 300 299 299 300 300 300 300 300 300 300 299 299 299 299 298 298 297 297 296 296 295 296 296 296 296 296 297 297 297 297 296 294 295
312 313 313 313 313 313 313 312 312 312 312 312 312 313 313 312 314 313 312 312 312 312 311 311 311 311 311 311 311 311 311 312 312 311 311 310 310 311 310 310 309 309 309 309 310 309 309 309 308 308 309 310 309 309 310 310 309 307 305 303 301 300 298 297 296 295 296 297 297 298 298 297 298 297 297 297 297 297 297 296 296 295 295 294 294 294 295 295 295 295 295 296 296 297 296 294 293
312 312 312 312 312 312 312 312 313 313 313 313 312 314 315 313 313 312 311 311 311 311 312 312 312 312 312 312 312 312 312 312 312 311 310 309 310 311 310 309 308 309 309 308 309 309 308 307 307 307 308 308 306 307 309 309 308 307 304 301 298 296 295 295 294 293 293 294 294 295 295 295 295 296 296 295 296 296 296 296 295 295 295 294 293 292 293 293 294 294 294 294 294 294 295 294 292
313 312 311 311 311 312 313 313 314 314 314 312 312 315 316 313 312 312 310 310 310 311 312 312 312 311 311 311 311 311 311 311 312 311 309 309 310 311 310 309 308 308 307 305 307 307 306 306 306 306 306 305 304 305 307 307 307 305 303 300 297 297 296 294 293 292 292 292 293 293 293 293 293 294 294 294 294 294 295 295 295 295 294 293 292 291 291 292 292 293 293 293 293 293 293 293 292
313 312 311 312 312 313 313 313 314 314 314 314 312 314 315 314 313 312 310 310 311 311 311 311 311 311 311 311 311 311 311 311 310 310 309 309 309 310 310 309 308 306 304 303 304 304 304 304 304 304 304 302 302 304 305 305 306 304 301 299 297 296 294 292 291 291 291 291 291 291 291 291 292 292 292 293 293 293 293 293 293 293 293 293 292 291 291 291 291 291 292 292 292 291 291 290 290
313 312 311 312 312 312 313 313 313 313 314 315 313 313 314 314 313 312 311 310 311 311 310 311 311 311 311 311 311 311 311 310 309 308 308 308 310 310 309 308 305 302 301 301 301 300 301 302 302 303 302 301 301 303 303 303 303 302 300 298 296 294 292 290 290 290 290 289 289 290 290 290 290 291 291 291 291 292 292 292 292 292 292 292 291 290 290 289 290 290 290 290 289 288 288 288 288
312 311 311 312 313 313 313 313 313 313 314 315 314 313 314 313 312 312 311 311 311 310 310 311 311 311 311 311 311 312 311 310 308 307 307 308 309 308 306 304 301 299 299 299 299 300 300 301 301 301 301 300 300 301 301 301 301 301 300 298 296 293 291 290 289 289 288 289 289 288 288 288 288 289 289 290 290 290 290 290 290 290 290 290 289 289 288 288 288 288 288 288 287 287 286 287 287
311 311 313 313 313 313 313 312 312 312 314 315 313 313 313 313 313 311 311 312 312 311 310 311 311 310 311 311 312 312 311 309 307 307 307 306 305 304 303 301 298 297 297 297 298 300 300 300 300 300 299 299 299 299 299 299 300 300 298 297 296 294 291 290 288 287 287 288 288 287 286 287 287 287 288 288 288 288 288 289 289 289 289 288 288 287 287 286 286 287 287 286 286 285 285 285 285
311 312 313 314 313 312 312 311 312 313 314 312 312 312 313 313 313 311 311 312 311 311 310 311 311 310 311 311 311 312 311 309 307 307 306 305 303 302 301 300 297 295 295 296 297 298 299 299 300 300 299 298 298 298 298 298 298 297 297 296 295 293 291 290 288 287 287 287 287 286 286 286 286 286 286 287 287 287 287 287 287 287 287 287 287 286 286 285 285 285 285 285 285 284 284 285 285
311 313 314 315 314 312 312 312 312 313 313 311 311 311 311 312 312 311 311 311 311 311 310 310 310 310 310 311 311 312 311 308 307 307 307 305 303 302 301 299 296 295 295 294 295 296 297 298 298 299 298 297 297 296 297 297 296 295 295 294 293 291 290 289 288 287 287 287 287 286 286 285 285 285 285 285 286 286 286 286 286 286 286 286 286 285 285 285 285 285 285 284 284 284 284 284 284
312 313 314 315 313 312 313 312 311 312 312 310 309 310 311 311 310 311 310 310 310 310 310 310 310 310 310 310 310 310 310 309 307 306 306 305 303 302 301 299 297 296 294 293 293 294 296 296 296 297 296 296 296 295 295 295 294 294 293 293 292 291 290 289 288 287 286 286 286 286 285 284 284 284 284 284 284 285 285 286 286 286 285 285 285 285 284 284 284 284 284 284 283 283 283 283 283
312 313 312 313 312 311 312 312 312 313 312 311 310 311 312 311 310 310 310 310 310 309 310 310 309 309 309 308 308 309 310 310 307 305 305 304 303 302 301 298 296 295 294 292 292 293 294 294 294 295 295 294 294 294 294 294 293 292 292 292 291 290 289 289 287 287 286 286 286 286 285 284 284 284 284 284 284 285 285 285 285 285 284 284 284 284 284 283 283 283 283 283 283 282 282 282 282
312 311 312 313 312 311 311 312 313 313 313 313 312 312 311 310 310 310 310 310 310 310 310 309 310 310 309 308 308 309 310 310 308 306 304 302 301 301 299 297 296 294 293 292 291 291 292 292 292 293 293 293 292 292 292 292 292 291 291 290 290 290 289 289 287 287 286 286 286 286 286 285 285 284 284 284 284 284 284 284 284 284 283 283 283 283 283 283 283 283 282 282 282 282 281 281 281
311 311 313 312 311 312 312 313 313 313 313 314 312 312 311 309 310 310 310 310 309 309 309 309 310 310 310 309 309 309 310 310 308 306 304 301 300 299 298 296 294 293 292 291 290 290 291 291 291 291 291 291 291 291 290 290 290 289 289 289 289 289 289 288 287 287 287 287 287 287 286 285 285 285 284 284 284 284 284 283 283 282 282 282 282 282 282 282 282 281 281 281 281 281 281 281 280
311 312 313 311 311 312 312 313 314 313 313 313 311 311 311 309 310 310 309 309 309 308 309 308 308 309 309 310 310 309 309 309 306 303 302 300 299 298 297 295 293 292 291 291 289 289 289 290 290 290 290 289 289 289 289 288 288 287 287 287 287 287 288 288 287 287 287 286 286 285 285 284 284 284 284 283 283 283 282 282 281 281 281 281 280 280 280 280 280 280 280 280 280 279 279 279 279
310 311 310 310 312 313 312 313 314 312 312 312 311 310 310 310 310 310 309 309 309 308 308 308 307 308 309 309 309 308 309 310 308 304 300 298 298 297 296 294 292 291 290 289 288 288 288 288 289 289 289 288 287 287 287 286 286 285 285 284 285 286 286 286 286 286 285 285 284 283 283 283 283 283 283 282 282 281 281 280 280 280 279 279 279 279 278 278 278 278 278 278 278 278 278 278 278
308 309 310 310 311 312 312 312 312 312 312 313 313 312 311 310 310 309 309 308 308 308 308 308 308 308 308 308 309 309 309 309 310 306 300 298 297 296 294 292 291 289 288 287 286 286 286 287 287 287 287 286 286 286 285 285 285 285 285 284 284 285 286 286 285 284 284 283 283 282 282 282 282 281 281 281 280 280 279 279 278 278 278 278 278 277 277 277 277 277 277 277 276 276 276 276 276
311 311 312 311 311 310 311 312 311 311 312 312 312 313 311 309 309 309 308 308 308 308 308 308 308 308 308 308 308 309 308 308 309 306 300 297 295 294 292 290 289 288 286 286 286 285 285 285 285 285 285 285 285 284 284 284 284 284 285 285 285 286 286 285 284 284 283 283 282 282 281 281 281 280 280 279 279 278 278 277 277 277 277 277 277 277 276 276 276 276 276 276 275 275 275 275 275
312 313 312 312 311 311 311 312 311 311 311 311 312 313 311 309 309 308 308 308 308 308 308 308 309 308 308 308 308 308 308 307 307 304 299 296 294 292 291 289 288 287 286 286 285 285 284 283 283 283 283 283 283 283 283 283 283 283 284 285 285 285 285 284 283 283 282 281 281 280 280 280 280 279 278 278 277 277 276 276 276 276 276 276 276 276 276 276 275 275 275 275 275 275 274 274 274
Wind_Speed
26 26 25 23 20 12 4 2 3 1 2 4 2 2 1 1 2 3 2 2 2 1 0 2 1 2 2 3 4 4 4 4 3 3 3 3 4 8 9 9 8 7 8 8 8 9 9 11 13 14 14 11 9 10 9 8 9 9 9 9 9 9 10 10 10 10 10 10 10 11 11 11 11 11 11 10 10 9 9 9 9 9 9 9 8 8 8 8 9 8 8 8 9 8 7 8 8
26 24 24 21 14 7 1 1 4 1 3 5 1 2 2 2 2 2 2 2 2 2 1 2 3 3 3 4 3 4 5 4 3 2 2 1 4 7 10 10 8 8 8 8 9 9 9 11 13 15 15 11 9 10 10 9 8 8 8 8 8 9 9 9 10 10 10 10 10 10 10 11 11 11 11 11 10 10 10 10 10 10 9 9 9 8 8 9 9 9 9 9 9 9 8 9 9
24 23 21 16 6 2 1 2 4 3 5 5 2 2 2 2 2 2 3 4 4 1 2 2 3 4 5 6 4 4 3 2 3 2 1 3 3 5 10 10 9 9 9 10 9 9 9 10 12 14 15 12 11 10 10 10 9 8 8 7 8 8 9 9 10 10 10 10 10 10 10 10 11 11 11 11 11 11 11 11 11 11 11 10 10 9 9 9 9 8 8 8 9 9 9 9 9
22 20 16 11 3 1 2 2 2 3 5 4 4 2 2 4 3 3 2 3 4 3 3 2 3 2 5 7 2 3 3 2 3 4 2 4 4 4 11 12 11 11 10 11 10 9 9 10 11 13 15 13 13 12 11 11 10 9 8 8 7 8 8 10 10 10 10 10 10 10 10 10 10 11 11 11 11 11 11 11 12 12 12 11 11 11 11 10 10 9 9 9 9 9 9 9 8
18 15 11 7 3 1 2 2 1 3 4 3 5 1 1 4 4 5 3 5 4 4 4 3 3 2 3 5 1 3 2 1 4 6 2 2 7 7 12 13 12 12 11 11 10 9 9 10 11 12 15 14 13 13 12 12 10 10 9 9 8 7 8 9 10 10 10 9 10 10 10 10 10 11 10 11 11 11 11 11 11 11 11 10 11 11 11 11 10 10 10 10 10 9 8 8 8
14 10 5 3 1 1 2 2 2 4 4 2 5 5 3 3 5 7 7 8 3 4 4 4 4 1 3 3 3 3 1 1 3 6 6 3 8 10 13 14 13 12 12 12 10 10 9 10 11 12 14 14 13 12 12 13 11 11 11 10 9 8 8 9 10 10 10 10 11 11 11 11 10 10 10 11 10 10 10 10 10 10 10 10 10 10 11 11 9 9 9 9 9 8 8 8 8
11 7 2 1 1 1 4 3 5 5 1 0 5 7 5 4 4 6 8 7 1 2 2 4 4 4 4 1 3 4 4 4 2 4 7 5 8 12 14 15 13 13 12 11 11 10 10 10 11 10 12 14 13 12 11 13 12 11 11 10 10 10 8 8 10 11 11 11 11 11 10 11 11 11 11 11 10 10 9 9 9 9 10 10 10 10 10 10 10 9 8 8 8 8 8 8 8
8 5 1 3 1 1 4 4 5 5 1 0 5 7 7 5 4 7 7 5 3 3 3 3 3 7 4 1 3 2 6 10 7 5 6 6 9 13 16 16 14 14 12 12 11 11 11 11 10 9 11 13 14 12 11 12 12 11 10 10 11 11 9 9 10 10 10 10 10 11 10 11 11 11 12 12 11 11 10 9 9 9 10 10 10 10 10 10 10 9 8 8 8 8 7 8 8
4 3 1 2 3 2 4 5 5 4 3 3 5 7 7 6 5 6 8 6 5 6 6 3 2 7 3 1 5 0 4 10 11 10 8 8 10 14 16 16 15 14 13 12 12 11 11 11 10 9 10 12 14 12 11 11 12 12 11 11 12 11 10 10 10 9 8 8 9 9 9 9 9 10 11 11 11 11 11 11 10 9 10 10 10 10 10 10 10 10 9 8 8 8 8 8 8
2 2 1 2 2 5 5 5 4 2 2 2 4 7 9 7 5 5 7 7 5 5 4 2 4 10 6 4 6 2 1 5 9 10 9 10 11 15 17 16 15 14 13 12 12 12 12 11 11 10 10 11 12 12 11 12 13 15 13 12 13 12 12 11 10 9 8 8 8 8 7 7 7 9 8 8 10 10 11 11 11 10 9 9 9 10 10 10 10 9 9 9 8 8 8 8 8
2 2 1 3 4 6 5 5 5 3 1 3 6 8 7 4 4 5 6 6 4 5 3 1 3 8 9 7 5 2 1 4 6 7 9 11 12 15 17 17 15 14 13 13 12 12 12 12 12 11 11 11 11 10 10 11 14 15 14 14 14 14 14 11 10 9 8 8 8 8 7 6 6 7 6 6 9 9 9 9 10 9 8 8 8 8 9 9 9 9 9 9 8 8 8 8 9
3 0 1 5 5 6 5 7 7 7 6 5 5 2 2 1 4 6 5 6 4 5 5 4 2 3 6 6 3 2 2 5 6 8 10 11 13 16 17 18 16 16 15 14 13 12 13 12 12 12 12 12 11 10 10 10 12 14 15 15 15 15 14 12 11 11 10 10 10 9 8 8 7 6 6 6 6 7 8 7 6 5 5 5 5 5 6 6 7 8 9 8 8 8 9 9 9
2 1 2 4 4 5 5 7 6 8 7 2 2 3 2 3 4 7 6 7 5 5 3 3 4 4 6 6 3 5 2 2 5 9 11 11 13 16 18 19 18 17 16 15 14 13 13 13 14 13 13 13 12 11 10 10 10 13 15 16 16 17 16 14 14 14 13 12 12 11 11 10 8 6 5 4 4 5 6 7 5 4 4 5 5 5 5 6 7 8 8 8 9 9 9 9 10
2 0 3 4 2 4 5 6 6 7 5 1 2 2 2 4 4 5 5 9 8 3 3 1 3 4 6 5 4 4 0 2 5 7 10 12 13 16 19 20 19 18 17 16 15 14 14 14 14 14 14 13 13 13 12 12 10 11 14 16 17 18 18 16 15 15 15 14 15 15 14 14 12 10 8 6 5 5 5 5 5 4 6 7 6 6 7 7 8 9 9 10 10 11 11 11 11
1 1 2 4 4 4 4 5 6 7 5 2 3 3 4 3 2 5 6 10 10 3 1 2 2 4 3 2 4 4 4 6 7 7 8 13 13 16 19 20 20 19 19 18 17 16 15 16 15 15 15 15 15 14 13 13 12 11 12 15 16 18 19 18 17 17 17 18 18 18 17 17 15 14 12 8 6 7 7 7 6 7 8 9 9 9 10 11 11 12 12 13 13 14 14 14 13
1 2 2 4 5 4 2 3 5 7 5 4 2 2 7 5 2 7 6 5 11 5 3 4 4 4 4 5 8 7 7 7 7 9 8 11 13 15 17 19 20 20 20 20 19 18 16 16 17 17 17 16 16 14 13 13 13 12 12 13 15 17 18 18 19 19 19 19 20 19 18 18 17 17 15 10 7 8 7 7 7 8 9 9 9 10 11 12 12 13 14 15 15 16 16 15 14
1 3 4 5 5 4 3 3 4 5 6 7 5 3 11 12 5 6 3 4 14 13 9 8 6 5 8 12 13 13 15 14 12 11 8 9 10 11 13 16 17 19 22 23 21 19 18 18 18 18 18 17 16 16 15 14 14 14 13 12 13 14 16 17 17 18 19 19 19 18 17 17 17 16 14 11 9 8 7 6 6 6 7 7 7 8 8 8 9 11 12 12 12 12 12 11 12
3 3 4 6 5 3 2 4 5 7 10 12 11 10 13 15 11 7 7 10 14 16 13 11 11 10 14 17 18 21 23 22 18 13 10 9 9 10 11 13 15 17 20 23 24 21 19 20 20 20 19 18 17 17 17 16 15 15 13 12 13 14 14 14 15 14 15 15 14 14 13 13 13 13 13 12 11 10 8 7 6 5 5 6 6 6 5 6 6 7 6 7 6 6 6 4 5
4 3 5 6 4 2 3 6 8 9 12 14 14 13 13 13 13 9 10 16 15 17 15 12 15 14 14 16 18 21 20 20 17 11 12 13 12 13 13 13 14 16 19 23 26 24 21 21 22 21 20 19 17 17 17 16 15 15 12 13 15 14 13 13 12 11 11 11 11 10 10 11 13 14 14 15 13 11 9 7 6 5 4 5 5 5 4 4 3 3 3 3 3 2 2 2 3
3 3 6 4 3 4 4 5 7 9 12 14 14 12 13 14 12 8 11 20 19 17 15 13 15 15 14 14 14 15 13 15 15 12 13 15 15 15 16 15 14 16 21 24 25 25 24 23 23 22 21 20 19 18 18 16 15 15 15 16 17 15 14 13 12 12 11 10 10 10 10 12 14 15 15 14 12 10 8 7 5 4 2 3 3 3 4 3 1 1 2 1 2 2 2 2 3
2 2 6 4 4 5 5 5 8 9 10 12 15 14 15 14 10 10 13 19 16 12 12 13 16 17 18 17 16 15 13 15 17 15 14 16 17 16 16 17 18 17 18 20 22 26 26 24 24 23 22 21 21 20 19 18 16 16 18 20 18 17 15 14 13 13 12 11 11 11 12 13 14 15 14 13 11 9 7 6 5 3 1 1 1 1 3 2 1 2 1 1 2 3 2 2 2
3 3 5 6 5 7 6 7 9 9 11 14 15 16 15 11 10 12 15 17 13 10 13 16 19 20 20 20 20 18 14 15 17 17 16 17 19 18 18 19 21 20 20 22 23 24 26 27 25 25 24 23 23 21 20 20 18 17 20 21 20 19 17 15 14 13 12 12 12 13 13 13 14 14 12 11 9 7 6 5 4 3 3 1 1 0 0 0 0 1 1 2 2 2 1 1 2
4 3 3 6 5 7 7 8 10 9 12 14 14 17 14 13 15 14 17 20 16 16 19 22 23 22 22 22 20 17 15 16 17 18 18 18 17 18 19 19 20 18 19 24 24 22 25 29 27 26 26 25 24 23 21 21 19 17 21 22 20 17 14 14 15 15 13 13 13 13 13 13 12 11 11 11 10 7 5 4 3 2 3 2 1 1 1 2 1 1 1 1 0 0 1 1 2
5 6 4 6 6 7 9 9 11 11 13 15 15 18 15 16 17 14 17 17 17 20 21 23 24 23 23 21 19 16 16 17 18 20 20 18 16 20 21 21 23 18 17 22 24 23 25 30 29 27 28 27 26 25 23 23 20 20 24 22 17 16 12 12 16 16 14 14 14 14 12 11 10 9 9 11 9 7 5 4 3 2 3 3 3 2 1 1 2 2 2 3 3 2 2 2 3
5 6 4 6 7 9 11 11 12 13 13 13 16 20 18 17 18 19 20 16 17 20 20 20 21 20 18 17 17 14 14 16 17 20 19 17 16 20 23 24 25 20 21 25 25 26 25 29 32 29 29 29 28 27 26 25 24 24 25 20 17 17 12 11 14 13 11 12 14 14 11 9 8 7 8 9 7 7 7 4 3 2 3 4 4 4 2 2 2 3 3 4 4 3 4 4 4
1 6 8 9 11 12 12 11 13 14 12 12 17 21 18 15 15 16 13 10 14 16 17 17 16 16 15 13 13 13 14 15 15 17 16 15 15 17 21 23 21 20 25 25 23 24 23 28 33 31 31 31 30 30 29 28 27 26 24 20 19 16 12 11 12 11 9 9 11 12 10 9 8 8 9 8 7 8 6 4 3 3 3 4 5 4 3 3 3 3 3 3 3 3 4 4 4
5 10 12 13 15 13 11 12 14 13 12 13 17 20 18 14 11 10 9 10 14 14 14 15 14 14 14 13 12 11 13 13 15 15 14 15 15 16 20 20 18 20 23 22 21 22 22 28 34 32 31 32 32 32 31 29 27 27 26 22 18 14 12 12 10 10 10 8 10 11 10 12 12 9 9 7 6 6 5 4 4 3 4 5 5 5 4 3 3 3 4 4 4 3 3 4 5
8 12 14 15 15 12 11 11 9 8 9 10 13 20 20 13 11 13 12 11 11 10 12 11 11 11 11 12 11 9 10 12 15 14 13 16 17 17 19 20 19 19 18 20 22 20 21 28 33 33 32 33 34 35 32 29 26 27 25 20 15 13 15 17 14 12 10 9 12 13 11 13 12 9 8 7 7 6 5 5 5 4 4 4 5 6 5 4 4 4 5 6 5 4 4 5 5
10 11 13 14 13 10 6 4 3 6 8 8 13 18 15 7 10 9 4 4 7 10 13 11 10 10 10 11 11 10 10 13 15 14 15 17 18 19 21 22 20 17 17 18 19 18 20 27 31 32 32 33 35 36 32 27 27 27 22 16 14 16 19 21 18 16 14 13 14 14 12 12 12 10 9 8 7 7 6 6 5 5 4 4 5 5 4 3 3 3 4 4 4 4 4 4 4
10 10 10 11 11 4 3 4 6 9 7 9 12 13 11 6 8 5 1 2 9 12 14 14 14 14 14 14 13 14 14 14 15 16 18 17 19 20 21 23 21 17 17 16 18 20 21 26 31 32 32 34 36 36 32 29 29 26 18 14 17 21 22 21 19 18 16 15 14 13 13 13 12 12 11 10 9 8 8 7 7 7 5 6 7 5 4 2 1 1 2 2 3 3 3 3 2
8 11 6 4 7 0 2 6 8 7 5 9 10 9 13 12 10 9 6 5 9 14 17 18 18 18 18 17 17 18 17 17 20 22 23 23 23 20 19 22 22 19 17 17 20 22 21 27 32 32 33 35 36 34 31 30 27 22 15 18 22 23 22 20 19 18 16 15 14 14 13 13 13 13 12 12 11 10 9 9 9 9 7 8 8 5 4 3 2 2 1 1 2 2 2 3 2
5 7 4 2 5 4 4 4 4 7 8 9 9 9 14 16 14 13 9 9 14 19 20 20 20 19 18 18 17 17 17 18 23 25 25 26 24 19 18 23 24 22 19 17 19 20 21 26 31 33 34 34 32 30 31 29 24 18 16 22 25 23 21 20 19 18 16 15 14 13 13 13 13 13 13 13 12 11 11 11 11 10 9 9 8 5 5 4 3 1 2 3 2 3 3 3 3
1 3 6 6 7 8 6 3 3 8 10 10 9 10 15 18 16 13 13 17 19 19 20 20 20 19 18 16 15 16 16 17 20 22 24 25 19 15 18 23 24 22 18 16 16 18 20 25 31 32 30 30 30 30 31 27 22 18 17 22 25 23 21 19 18 17 16 15 13 13 13 13 13 14 14 13 13 12 11 12 11 10 9 9 9 7 6 4 4 4 5 6 5 4 4 5 4
2 3 6 8 9 10 8 6 6 9 12 13 12 13 20 24 22 18 17 19 19 19 20 20 19 18 17 16 16 16 16 16 16 18 22 22 16 15 19 22 21 19 15 13 15 16 20 27 30 28 25 28 32 33 30 24 21 21 21 23 24 23 21 19 18 17 16 14 13 13 13 13 14 14 14 12 12 12 12 12 11 11 9 9 9 8 8 8 8 7 7 8 8 7 6 6 6
7 7 7 9 10 9 10 11 10 12 15 16 15 16 22 29 25 18 16 16 18 20 19 19 19 19 17 16 16 16 16 16 16 17 19 18 14 14 17 18 15 13 11 11 13 15 21 27 27 27 27 30 32 30 26 21 20 24 25 25 25 23 21 20 18 16 15 15 14 14 14 14 14 15 14 11 12 13 12 9 9 12 12 12 12 12 12 12 12 11 9 10 10 10 9 8 9
10 11 10 11 12 10 10 12 11 14 16 14 15 17 22 27 25 20 18 17 19 21 19 17 17 17 16 15 15 15 16 17 16 15 15 13 12 13 12 10 9 8 8 11 14 16 21 23 25 29 30 31 30 25 22 20 23 28 28 26 25 24 22 20 18 17 16 15 15 15 15 15 15 16 13 10 13 15 14 10 10 14 16 15 15 15 14 13 14 13 12 11 9 11 12 10 10
11 12 11 11 13 11 10 12 13 12 12 12 14 20 25 27 26 22 19 19 19 20 19 17 16 15 14 15 16 16 17 17 15 11 10 10 10 11 10 6 5 6 8 10 14 16 18 21 27 31 31 31 27 22 24 28 31 32 28 26 26 25 24 21 19 18 17 16 16 16 16 16 17 16 12 10 15 17 17 15 14 16 17 16 16 15 14 13 14 14 12 12 10 12 13 11 10
11 10 10 11 10 11 12 13 12 8 9 12 15 22 27 26 26 22 17 18 19 17 17 17 17 16 14 15 17 17 16 15 15 11 6 5 6 7 7 5 6 7 9 11 14 15 17 20 25 29 30 28 21 22 30 33 34 33 29 28 27 26 23 21 22 21 20 18 18 17 17 17 17 16 14 15 17 18 18 17 17 17 16 16 16 16 15 14 15 14 11 10 11 13 14 13 11
10 8 9 9 8 11 11 7 6 6 6 12 17 20 24 25 25 20 14 15 17 14 15 16 17 16 14 15 16 16 17 16 17 15 5 2 3 5 5 5 6 7 9 11 13 14 16 18 23 26 27 22 19 27 34 33 32 31 30 29 28 26 23 22 23 22 21 21 21 20 19 19 18 18 18 18 18 18 18 18 17 17 17 17 17 17 16 15 14 14 12 9 9 11 12 13 14
8 7 8 8 9 10 7 4 8 10 10 14 18 17 20 22 17 11 9 10 14 13 14 15 14 14 15 16 16 15 17 16 16 17 8 1 3 5 6 6 6 7 9 11 12 14 15 15 20 24 23 18 21 30 34 33 33 30 29 29 28 26 24 24 24 22 21 22 22 21 20 20 19 19 19 18 18 18 18 18 17 17 17 16 16 16 16 16 15 15 14 12 9 7 8 9 12
8 9 9 10 11 11 11 11 14 14 10 8 12 16 15 9 8 9 7 7 11 10 11 13 11 12 13 14 15 15 15 14 14 15 11 5 5 5 6 6 6 7 9 11 13 14 13 14 18 20 19 17 20 29 34 34 34 31 30 29 26 25 24 23 23 22 22 22 22 22 21 21 20 20 19 19 18 18 18 18 17 17 16 15 14 15 15 15 15 15 14 14 12 8 8 7 9
8 8 9 12 13 13 14 15 13 11 6 2 8 12 11 7 11 7 6 7 11 9 8 11 10 10 10 10 12 12 13 12 10 10 10 8 7 4 5 6 7 7 8 9 11 12 11 14 17 18 18 15 18 29 35 35 35 34 34 32 27 23 20 17 18 21 22 23 23 23 22 21 20 20 19 18 18 17 17 17 16 16 15 14 13 12 13 13 13 13 13 14 14 12 10 9 8
8 5 5 9 12 12 13 13 10 8 7 8 8 8 12 12 7 5 10 12 11 8 7 10 9 9 8 9 10 10 11 11 8 8 8 8 6 4 5 6 7 6 7 8 10 11 10 13 16 17 16 14 20 31 35 34 35 35 33 29 24 20 18 16 18 22 24 25 25 24 23 22 20 19 18 17 16 16 15 15 15 14 14 13 12 11 11 11 11 12 12 12 13 13 11 9 8
6 1 3 8 9 11 13 12 9 8 10 13 10 7 12 12 5 8 13 10 7 9 11 12 11 11 11 11 10 10 10 9 8 9 9 8 5 4 4 5 6 5 7 9 10 9 10 12 14 15 13 12 21 32 34 34 36 35 30 25 21 18 19 21 23 26 27 27 26 24 23 21 20 19 17 16 15 15 15 14 14 13 13 12 12 11 9 9 10 11 11 11 11 11 9 9 7
7 1 3 7 9 11 12 11 9 8 8 10 8 4 8 11 7 8 9 5 7 13 15 15 14 14 13 13 13 12 9 6 6 9 10 8 5 3 1 4 4 5 7 9 10 10 11 14 15 14 12 13 23 31 32 32 33 33 30 26 25 23 24 28 29 29 28 27 26 24 22 20 19 18 17 16 15 15 14 14 13 13 13 12 11 11 10 9 10 10 10 10 9 8 7 7 7
5 2 5 7 8 10 10 9 8 7 6 9 8 4 6 10 8 5 4 4 9 14 13 13 14 15 13 12 13 12 8 5 5 7 7 6 5 2 2 4 5 5 7 10 12 14 15 17 16 15 12 15 25 30 30 30 30 31 29 28 29 28 30 31 30 29 28 27 25 23 21 19 18 17 17 16 15 15 14 14 13 13 12 13 12 12 11 11 11 12 11 10 9 8 7 6 6
2 3 8 9 8 8 7 6 5 4 5 8 8 8 7 8 6 3 1 3 11 15 12 11 14 16 14 12 12 11 8 6 5 5 4 4 3 2 3 4 5 6 9 10 13 15 17 18 18 18 16 18 26 28 27 28 28 29 29 30 32 33 34 33 31 29 27 26 25 22 20 19 19 18 17 16 15 15 14 13 13 13 13 13 13 13 12 11 11 12 12 11 10 9 7 7 7
1 3 7 8 6 5 4 4 3 4 6 3 3 7 8 9 7 3 2 8 15 15 12 12 15 16 14 13 12 10 8 5 5 5 2 1 1 1 3 4 5 6 8 10 13 16 18 20 21 21 19 21 25 26 26 26 26 27 28 30 32 34 34 34 32 28 27 27 25 22 21 20 19 18 18 17 16 15 14 14 13 13 13 13 13 13 12 12 11 11 10 9 9 8 7 7 7
3 5 5 5 5 3 3 4 4 5 6 2 3 2 6 12 13 12 15 17 14 10 10 14 14 14 13 13 12 10 7 5 5 5 3 2 2 2 4 5 6 7 8 9 12 16 18 19 21 22 22 23 25 25 25 26 26 26 27 30 32 33 33 32 30 27 25 26 25 23 21 20 19 19 18 17 16 15 15 14 13 13 13 12 12 12 12 12 12 12 11 10 8 7 7 7 7
6 6 4 4 4 5 5 5 6 6 5 4 3 2 6 12 11 12 14 11 7 8 11 13 12 12 12 12 11 10 8 5 4 4 3 3 3 4 5 6 7 7 8 9 12 16 18 19 20 22 23 24 25 25 25 26 26 26 28 30 32 32 31 31 28 26 25 25 24 23 20 19 19 20 19 18 17 15 15 14 13 13 12 12 12 11 11 11 11 12 12 12 11 9 7 7 8
7 6 5 5 4 6 6 5 7 8 8 7 3 3 5 7 4 3 5 5 7 10 9 9 11 9 8 9 9 8 8 4 1 2 3 4 4 4 5 6 7 8 9 10 13 17 19 19 21 22 23 24 25 26 26 26 27 27 29 31 32 32 31 31 28 26 26 26 25 24 23 22 22 21 20 19 17 16 15 14 13 13 12 11 11 11 11 10 10 11 11 12 12 10 9 9 9
5 5 5 6 5 6 6 6 8 10 12 9 5 5 6 8 12 12 10 10 9 7 6 6 9 7 5 6 6 5 6 4 2 2 4 4 4 5 6 7 7 8 10 10 12 17 20 20 21 22 23 23 24 24 25 26 27 28 29 31 32 32 32 31 29 28 27 26 26 26 25 24 23 22 20 19 17 16 15 14 13 13 12 12 11 10 10 9 9 10 10 10 10 10 9 9 8
3 4 5 2 3 5 6 8 7 8 12 8 4 8 7 6 14 12 7 8 7 5 6 7 9 8 5 4 4 5 6 5 3 3 3 4 5 7 7 8 8 9 11 11 12 16 20 21 22 22 22 23 23 23 23 24 26 28 28 30 31 32 32 31 31 29 28 27 27 26 25 24 23 22 20 19 17 16 15 15 14 14 13 12 11 10 10 9 8 8 9 9 9 8 7 7 7
4 4 4 2 1 3 3 6 6 6 11 7 6 13 9 4 7 2 5 5 8 9 10 10 10 9 6 5 6 9 8 4 3 3 4 4 5 7 8 9 10 11 12 12 13 17 20 21 22 23 22 23 23 23 23 23 25 26 26 27 29 30 31 31 30 29 28 27 27 26 25 24 23 21 20 18 17 16 16 15 15 14 13 12 11 10 9 8 8 7 8 7 8 7 6 6 5
2 2 1 2 3 4 3 4 5 7 11 9 9 13 9 7 8 5 5 8 8 10 11 10 11 9 7 8 10 12 9 4 3 3 4 5 6 8 10 10 10 11 11 11 13 17 20 21 21 22 23 22 22 23 23 24 25 25 25 25 26 28 29 29 29 28 28 27 27 26 25 24 23 21 19 18 17 16 15 15 14 13 12 11 10 10 9 8 7 7 7 6 6 6 5 4 4
2 1 1 1 4 5 4 4 4 6 9 10 12 11 6 7 10 10 11 12 11 12 12 11 11 9 9 11 10 9 9 7 4 3 5 6 7 9 10 11 11 12 12 12 13 15 18 21 21 21 22 22 23 23 23 24 26 27 27 26 26 27 28 28 28 28 27 27 27 26 25 24 22 20 18 17 16 15 14 14 13 12 11 10 9 9 8 7 7 6 6 5 5 4 4 4 3
6 6 5 4 3 3 5 5 5 6 8 9 13 12 5 3 6 8 9 11 10 12 12 12 12 11 11 11 9 7 9 10 6 3 5 6 7 8 10 10 11 11 11 12 13 13 16 19 21 21 22 22 23 23 23 25 26 28 29 29 28 28 28 28 28 27 27 27 26 25 24 23 21 19 17 16 15 14 13 12 11 11 10 9 8 7 7 6 5 5 4 4 4 3 4 3 4
8 7 8 8 7 5 6 8 7 6 8 8 10 14 9 2 3 3 5 9 10 12 13 14 13 11 9 8 9 9 9 9 7 4 4 5 6 8 9 10 10 11 12 13 13 12 14 15 18 21 21 22 23 24 25 26 28 29 30 30 30 29 29 28 28 27 26 26 25 25 24 22 21 19 16 15 14 13 12 11 10 9 8 8 7 6 5 5 4 4 4 3 3 3 4 4 4
Wind_Direction
341 341 342 340 335 323 290 325 294 211 272 280 291 301 172 116 335 283 251 193 250 111 92 304 217 237 266 302 333 339 287 276 315 305 344 58 176 182 184 187 173 165 170 171 173 177 181 189 195 192 176 177 183 184 190 194 204 204 204 207 208 211 207 205 203 207 202 199 200 200 203 201 201 200 199 199 198 198 201 203 203 207 213 220 226 234 239 242 246 250 253 259 267 266 265 266 267
341 341 342 340 334 320 302 326 293 293 282 288 275 318 56 129 237 277 318 321 305 83 47 290 227 245 278 302 299 280 247 231 296 329 9 318 211 196 194 185 173 169 173 175 176 179 185 191 198 197 182 178 187 184 187 191 205 210 209 210 211 214 214 214 210 210 209 206 204 202 203 203 203 205 206 205 206 206 209 210 211 215 219 225 231 238 243 247 248 251 256 259 263 266 266 265 270
341 341 341 335 328 316 281 243 290 312 295 298 329 56 90 250 274 339 356 346 336 346 276 236 225 239 237 244 241 269 256 197 252 239 233 252 227 198 198 184 178 179 178 181 180 180 185 193 197 200 192 184 187 190 192 191 202 211 213 214 215 218 219 221 217 215 214 210 207 207 205 204 204 205 207 207 208 210 213 214 215 219 223 228 232 237 242 247 248 251 258 260 261 267 267 265 270
341 341 340 329 301 256 297 289 304 301 296 305 323 83 146 292 337 349 11 357 332 286 252 212 224 197 231 258 266 276 255 189 208 209 224 223 218 200 193 187 183 184 184 183 181 181 185 193 195 201 201 194 188 191 196 195 199 208 214 213 213 219 222 222 221 220 219 217 211 211 211 209 207 207 206 205 207 209 213 214 217 221 225 230 232 235 239 244 248 253 257 261 262 264 267 267 268
342 340 342 328 289 334 324 296 265 256 296 322 311 345 97 310 334 331 321 325 317 244 233 210 237 152 232 272 292 274 251 148 174 203 230 206 214 204 190 190 188 188 187 186 183 183 187 194 195 200 203 200 192 190 196 199 199 206 213 211 210 216 224 223 224 224 223 224 219 217 217 215 214 213 211 210 211 211 216 217 220 223 228 233 235 237 239 244 248 251 253 256 258 259 267 269 270
342 331 349 357 337 341 266 258 262 259 297 316 291 309 11 357 331 319 304 317 325 225 246 245 261 270 250 241 213 262 335 129 147 193 214 216 209 200 192 190 190 191 190 189 186 186 192 196 197 200 200 199 196 191 195 203 202 208 215 215 213 211 222 227 230 232 229 231 228 227 224 223 222 221 220 219 219 218 223 224 225 229 233 237 240 243 243 243 243 245 246 249 251 253 261 265 271
347 325 352 15 124 208 268 275 283 278 316 187 284 307 345 6 336 308 304 319 328 186 232 261 292 286 265 203 218 230 227 220 156 185 199 207 205 195 193 190 191 194 194 193 191 195 199 201 200 201 199 197 198 193 196 204 203 209 217 218 216 214 220 229 235 238 237 237 236 239 235 232 230 229 228 228 228 227 229 230 232 236 238 241 241 245 247 246 246 248 246 247 248 250 257 261 266
355 336 341 299 280 210 272 272 278 275 275 184 280 295 315 328 303 291 298 308 296 288 251 256 285 265 263 149 247 204 213 228 219 221 198 205 204 194 193 189 193 195 197 196 197 203 204 207 205 202 197 196 200 195 193 198 202 209 214 215 216 216 220 225 231 233 235 239 241 244 243 240 237 237 236 235 235 234 235 235 238 239 241 243 243 245 245 248 250 252 251 251 254 256 256 253 255
353 340 247 279 291 267 267 263 276 264 254 276 282 286 298 298 281 280 286 284 285 293 276 278 254 252 298 201 247 321 217 233 229 234 219 212 202 196 194 190 195 197 199 200 203 210 209 211 208 205 198 197 203 199 191 191 199 206 209 213 212 212 218 220 221 224 229 235 240 240 240 241 239 242 243 240 237 236 238 238 240 241 243 244 244 246 245 247 248 251 254 257 257 257 255 252 254
332 15 328 279 274 268 266 259 270 247 244 295 302 292 293 296 282 268 272 283 287 292 303 339 238 243 282 288 259 283 220 233 232 237 223 216 210 202 198 194 197 199 203 204 206 212 213 213 208 207 202 202 208 205 194 191 197 202 204 205 208 212 216 217 212 212 216 220 223 225 234 232 225 237 240 236 236 237 237 236 240 240 242 244 245 249 248 248 248 249 252 255 256 256 257 257 258
294 74 350 270 257 262 273 271 274 277 298 316 303 289 291 308 281 268 255 279 292 280 290 158 243 250 261 272 264 244 235 258 240 236 225 220 219 208 201 198 199 202 207 209 211 214 215 214 210 208 205 207 212 211 202 195 196 199 200 199 204 209 211 212 208 203 200 205 212 216 221 208 200 215 212 216 229 234 236 235 237 236 238 243 248 251 251 251 250 251 253 255 258 259 260 260 261
293 42 273 272 266 267 280 285 286 294 298 298 308 331 347 296 261 300 296 295 302 284 275 206 276 314 257 252 273 294 271 269 252 242 236 228 225 216 205 202 203 206 209 212 215 216 216 214 211 210 207 208 211 213 211 203 198 196 197 199 200 201 202 207 206 201 200 207 217 215 209 199 194 192 185 197 216 219 229 235 231 225 227 236 241 245 249 252 253 253 254 255 259 262 262 262 262
304 320 278 275 276 273 280 288 291 296 293 283 339 51 359 278 294 325 320 309 299 295 316 223 277 307 270 273 296 289 255 247 265 250 239 233 227 218 208 205 208 210 212 215 217 220 219 214 211 211 209 208 210 211 214 214 207 199 196 197 197 196 197 203 206 205 208 214 216 215 213 211 210 202 194 200 207 212 228 235 232 235 242 250 248 245 249 256 260 259 262 263 264 266 263 263 261
304 304 273 273 276 268 270 282 288 294 293 90 29 28 311 283 327 329 317 316 310 334 18 295 268 262 266 278 280 276 269 357 303 270 238 232 226 217 211 209 211 213 216 217 219 222 220 216 211 210 208 208 210 211 212 215 216 208 201 196 194 196 199 204 209 211 215 218 216 215 217 223 230 231 232 234 231 233 237 232 231 247 258 266 266 262 266 269 271 269 268 269 269 270 269 269 267
299 181 257 268 262 258 239 262 288 289 289 30 21 8 320 291 7 323 321 319 315 18 14 266 200 253 295 300 313 2 5 346 336 308 248 231 227 221 215 212 213 214 218 220 222 222 220 219 214 210 207 207 210 210 210 210 213 214 210 203 197 197 200 206 213 218 219 220 218 216 218 225 233 237 238 236 228 226 224 217 217 231 244 254 260 264 270 272 273 272 269 270 269 271 272 272 271
302 217 245 259 260 255 204 230 276 278 295 10 40 40 314 309 37 316 326 314 300 298 256 256 209 258 309 287 298 323 311 313 327 319 277 239 235 229 222 220 219 217 219 221 222 222 220 218 216 214 209 207 209 210 211 209 209 211 215 214 208 203 203 208 215 220 220 220 220 220 223 226 230 234 235 230 217 216 211 209 215 225 233 236 242 249 254 256 257 258 258 260 262 264 266 266 266
212 237 244 252 255 245 220 230 263 293 320 323 311 355 319 308 311 301 289 255 280 282 265 262 243 232 267 272 281 286 281 282 292 305 294 255 243 237 230 225 224 223 223 223 223 222 220 218 216 216 212 207 206 206 209 209 208 206 211 216 216 212 208 209 213 216 218 218 220 220 221 220 220 222 222 216 206 204 202 206 218 226 229 225 228 233 235 235 233 238 245 250 255 257 259 263 265
227 247 251 260 263 256 272 274 291 307 305 304 308 326 316 306 313 315 294 276 277 280 274 265 258 242 250 259 266 271 273 278 283 283 275 260 243 239 235 227 224 225 226 226 225 221 219 220 216 215 213 207 204 203 204 205 205 203 204 209 212 213 209 206 208 210 209 207 207 206 204 199 194 191 191 193 192 193 196 203 214 217 222 225 226 226 220 219 223 229 238 246 251 255 263 276 284
252 263 267 270 279 316 339 298 301 303 302 309 312 313 308 305 312 314 298 294 289 283 282 275 270 267 258 249 250 259 267 277 280 270 261 255 243 240 240 236 227 224 229 231 230 224 220 221 217 214 212 206 202 202 202 201 200 199 198 200 204 206 205 204 204 198 193 191 188 188 187 180 174 174 177 181 183 185 187 189 196 202 210 219 217 224 223 207 211 222 230 248 257 277 301 320 306
267 262 268 287 336 318 314 301 305 312 317 314 309 310 302 299 302 299 296 294 286 278 281 278 273 280 280 266 254 252 256 270 275 266 259 256 248 241 242 244 239 235 236 236 235 227 221 222 219 213 211 205 200 200 200 199 196 197 197 197 196 197 199 199 196 189 186 185 179 178 178 174 172 173 174 175 177 176 173 175 180 184 190 209 203 231 253 228 226 263 258 290 298 317 341 337 318
317 256 277 334 7 310 314 330 321 322 324 310 306 305 294 297 299 289 291 288 281 276 278 276 278 283 284 281 277 269 260 265 267 259 254 255 252 246 245 249 253 251 244 240 240 234 224 222 220 213 210 203 200 199 198 199 196 196 196 194 191 191 192 191 190 187 186 183 177 176 173 171 171 170 171 172 171 166 161 162 164 160 159 176 150 235 264 247 293 302 309 320 287 292 314 350 347
299 256 297 328 323 302 317 328 318 320 314 303 300 294 293 302 289 277 276 274 276 288 287 280 278 279 278 279 281 277 269 266 264 259 251 252 253 253 253 257 260 259 255 252 251 244 228 222 222 214 210 203 200 198 198 200 196 194 193 191 188 187 186 185 186 183 182 180 177 174 169 167 168 169 171 171 166 158 155 156 153 154 166 160 101 120 280 91 7 320 325 304 280 275 277 25 31
292 269 297 301 297 296 304 310 306 310 301 292 289 287 290 290 282 273 260 261 271 278 278 275 272 272 273 276 277 275 270 269 268 267 262 258 256 259 262 266 268 264 263 262 258 251 232 224 222 215 210 203 198 196 196 197 192 190 190 187 185 182 180 180 182 180 178 175 174 172 168 167 166 168 169 170 168 162 163 162 167 176 182 182 166 163 87 73 57 50 30 2 4 147 143 87 49
263 276 280 289 296 290 293 300 297 295 283 278 283 285 283 279 281 274 259 265 276 271 267 268 270 272 272 272 273 270 269 272 272 273 274 271 266 268 271 272 274 271 267 266 261 256 241 226 220 215 210 203 196 193 193 193 190 189 187 183 182 180 175 177 180 179 176 174 175 175 173 172 170 170 170 173 175 182 192 184 185 201 202 203 197 184 134 96 79 71 66 63 70 80 84 78 49
234 270 286 291 292 288 291 293 289 284 275 274 276 277 274 272 276 278 278 282 276 268 268 270 273 274 273 272 275 273 271 272 272 274 275 273 272 273 275 274 272 268 265 266 261 258 247 227 220 214 207 203 195 191 191 191 189 186 183 179 180 179 174 174 176 174 172 173 177 176 174 175 172 172 172 175 183 191 193 180 179 197 195 192 191 192 177 157 121 84 81 76 76 82 80 75 53
276 296 302 299 292 291 292 287 284 281 277 277 275 277 280 281 283 283 286 287 273 271 276 279 279 278 281 280 278 277 274 272 271 275 279 279 276 272 274 274 267 263 266 266 257 255 246 227 220 213 205 201 194 189 190 190 186 183 181 180 179 176 170 169 166 165 167 167 173 173 169 169 169 172 176 177 182 181 173 160 166 172 166 153 154 163 153 156 146 93 90 95 91 91 80 82 79
332 306 303 297 291 288 283 279 284 287 284 281 281 285 290 288 283 276 283 299 293 292 290 287 287 285 286 286 282 278 276 277 277 280 284 282 277 271 274 274 264 263 267 264 256 250 241 227 218 212 206 200 192 190 190 187 183 182 181 180 177 172 167 162 157 160 163 160 166 167 163 166 168 170 174 172 170 166 154 148 152 154 155 143 135 127 112 122 126 88 86 100 104 103 91 92 94
314 304 299 292 289 289 287 281 286 302 294 288 294 294 289 269 246 258 276 301 310 310 302 294 289 287 288 292 289 282 276 280 283 279 274 276 280 279 280 279 272 268 264 261 259 248 238 228 216 210 206 199 192 190 190 184 180 182 180 175 171 168 166 165 162 160 158 159 165 166 164 168 168 161 158 156 155 154 148 146 141 144 153 140 121 113 109 102 94 77 75 89 97 101 96 87 87
298 294 293 295 294 293 306 306 295 319 318 330 319 300 290 242 228 255 263 305 318 308 299 295 293 291 294 298 294 288 282 280 280 274 268 270 277 279 280 282 278 272 266 263 258 245 235 225 214 209 204 196 191 190 189 183 180 180 174 169 168 166 167 170 169 165 163 165 166 167 169 171 174 169 164 160 156 156 152 144 141 149 155 143 134 126 124 108 84 80 67 73 84 88 85 76 77
292 286 285 300 304 289 73 3 318 315 332 354 333 303 295 261 236 259 109 293 301 297 295 299 301 301 300 300 298 293 289 284 279 278 280 277 278 278 278 282 280 270 266 261 251 244 234 221 213 206 199 193 190 190 187 183 180 176 168 165 167 168 170 171 169 167 168 171 172 173 174 177 182 182 179 174 166 161 154 146 145 152 154 149 154 157 155 162 222 152 92 51 41 56 59 54 63
292 292 273 290 315 36 101 336 331 329 341 343 324 287 286 285 269 281 294 285 291 293 295 297 297 297 296 294 292 290 289 288 286 286 288 285 280 278 275 280 281 270 260 253 248 245 231 219 213 203 195 190 187 188 186 181 176 170 165 163 167 171 171 168 167 167 169 172 175 177 179 182 184 182 179 175 170 163 155 150 151 155 153 146 153 161 158 163 197 199 134 55 23 35 44 34 43
285 300 288 284 314 310 307 339 358 326 315 314 302 281 287 293 290 289 291 290 294 294 295 295 293 290 289 288 287 286 287 288 288 286 284 283 277 271 273 279 281 273 259 250 243 237 225 216 209 199 192 186 184 184 182 177 170 165 162 164 171 173 171 169 167 165 167 171 174 176 181 183 182 180 175 171 169 165 161 158 159 165 161 152 159 173 165 145 141 147 98 93 63 49 58 53 57
213 299 304 307 310 311 322 360 335 303 302 299 288 289 291 289 289 287 290 295 295 292 292 293 291 288 285 285 287 288 290 289 289 285 281 283 279 269 276 279 280 275 261 247 232 219 211 205 199 193 186 181 180 179 177 172 166 164 160 164 171 171 171 173 169 166 166 170 173 174 178 179 177 176 174 172 170 169 166 163 166 171 162 154 164 176 174 155 133 114 94 97 89 64 57 59 60
318 309 301 305 306 307 314 320 316 301 297 298 293 285 280 280 285 290 295 297 292 285 288 290 288 288 286 285 288 289 292 291 289 286 283 288 285 276 282 281 278 272 257 238 221 206 196 193 189 184 180 177 177 175 172 167 164 165 162 164 168 167 171 175 172 169 166 168 169 168 168 168 168 167 169 170 167 169 168 164 166 167 157 153 162 166 162 150 132 117 99 94 90 79 68 69 70
316 311 308 307 305 302 303 307 315 305 295 299 297 285 279 283 289 296 299 295 287 281 283 288 287 288 289 288 289 289 292 290 290 291 289 293 290 284 285 281 275 265 245 218 203 192 184 184 180 177 177 174 172 170 166 162 162 165 164 164 164 166 172 174 171 167 165 166 163 161 159 157 157 159 161 158 156 161 159 154 153 154 151 149 150 149 145 137 126 120 110 96 86 82 81 85 85
304 301 299 301 301 297 297 298 303 304 300 301 299 289 284 287 292 296 295 288 282 280 282 286 286 289 291 289 288 288 289 289 294 296 293 295 293 288 284 274 266 247 222 200 190 181 175 175 173 172 173 170 168 165 164 162 161 163 164 162 161 165 171 170 166 163 162 162 158 156 155 154 153 152 151 147 147 151 148 141 138 145 146 144 142 139 137 133 125 120 116 107 90 80 81 92 95
292 292 290 293 296 294 299 298 296 304 302 300 300 293 288 288 289 289 289 287 283 284 289 292 289 290 291 288 288 288 289 292 295 289 281 288 288 285 277 256 234 211 196 188 183 177 171 172 171 169 170 170 167 166 169 167 164 164 164 161 160 163 168 167 161 159 158 156 154 153 153 153 153 150 141 136 144 147 145 142 140 142 143 141 138 134 133 132 127 120 113 108 100 83 75 80 91
279 284 292 296 293 292 298 295 295 307 300 298 302 294 288 285 285 286 288 288 286 287 293 293 291 291 290 290 290 291 292 294 296 289 269 270 274 269 264 235 209 199 188 183 179 175 171 170 169 169 170 170 170 172 172 170 168 168 166 163 161 158 160 160 158 159 158 154 150 150 150 150 150 147 140 140 146 147 145 143 141 140 140 137 132 130 127 127 126 122 114 102 92 84 72 66 74
275 278 290 293 292 300 300 281 291 320 307 303 305 294 287 283 282 289 296 285 280 284 285 284 289 292 293 294 294 296 297 298 302 302 293 224 244 245 237 219 209 198 185 181 176 173 172 170 170 171 172 171 174 175 172 170 170 170 168 164 161 157 155 157 157 157 156 152 150 149 148 146 146 145 143 145 147 147 145 142 139 136 135 133 129 127 124 122 122 119 119 112 95 82 72 62 64
271 275 285 287 291 301 299 292 310 316 305 296 300 295 285 281 283 301 315 283 275 285 282 278 284 286 287 290 292 294 294 296 299 303 310 258 235 233 221 214 201 189 183 180 174 174 176 176 174 173 173 172 174 173 172 172 171 169 167 163 160 157 154 152 149 146 147 147 148 148 147 146 145 144 145 147 147 147 145 141 138 135 133 131 128 127 124 121 118 114 114 116 113 94 81 65 60
272 270 271 274 285 288 288 303 314 312 301 290 309 305 284 295 345 340 326 288 285 295 287 283 284 279 278 281 284 285 286 290 292 301 312 304 269 240 219 206 192 189 188 183 177 178 182 180 176 173 171 169 171 174 175 173 170 167 162 156 152 148 145 144 142 140 142 143 143 144 145 145 145 145 145 146 146 146 144 141 138 135 131 127 124 123 120 117 113 112 111 112 114 111 109 91 67
279 270 260 261 276 286 292 307 318 315 311 13 353 317 286 347 17 347 332 326 313 314 296 292 297 291 284 281 287 289 291 294 296 303 307 300 289 248 213 198 195 195 188 182 179 182 185 180 176 173 171 167 171 177 177 174 170 167 161 154 151 147 144 145 145 142 143 143 142 142 141 142 143 143 143 143 144 143 142 141 137 134 130 124 119 114 111 110 107 107 107 108 110 111 115 109 89
283 279 253 257 272 287 296 309 318 313 305 307 322 300 287 319 3 0 343 335 327 333 320 311 316 313 306 299 300 303 305 310 312 311 305 296 284 247 223 205 198 193 181 176 177 184 187 179 176 175 173 171 176 179 178 174 171 167 163 158 153 150 145 144 146 147 147 145 142 139 138 139 139 140 140 141 141 140 139 137 135 133 131 125 119 111 106 106 105 104 105 107 110 111 112 110 109
281 292 245 266 281 291 296 305 302 296 302 294 280 262 277 294 318 331 326 325 346 355 342 336 335 330 326 321 315 308 310 318 321 317 313 306 287 261 240 201 188 182 179 173 171 180 182 177 178 177 175 176 179 179 178 175 172 168 165 159 153 150 145 144 148 149 146 144 140 138 138 138 139 138 138 137 137 137 136 134 133 131 129 126 120 114 107 104 104 104 104 105 107 109 109 107 112
280 285 254 278 285 289 292 296 293 296 306 292 271 240 264 276 285 307 311 322 3 355 341 335 336 334 330 325 322 316 314 321 323 319 318 323 320 297 232 171 162 161 172 174 172 176 177 177 179 178 177 179 179 178 176 174 173 170 167 163 158 153 148 148 149 147 144 142 140 138 137 135 135 135 133 132 131 131 129 128 129 127 125 122 118 114 109 107 107 105 102 100 99 97 97 100 104
291 294 268 280 275 277 282 282 293 303 283 274 269 219 255 285 285 276 291 337 349 344 335 330 332 331 327 325 322 320 322 328 326 320 321 336 354 19 128 140 140 157 176 183 184 184 183 181 179 176 174 177 177 177 175 175 174 172 170 168 163 155 151 149 147 144 143 142 139 135 134 132 131 130 128 128 125 124 124 122 121 120 119 116 113 111 108 107 107 104 102 98 97 94 91 93 99
335 317 283 290 279 271 274 271 289 293 256 261 253 210 225 285 292 250 219 352 337 327 322 328 330 327 326 327 323 322 330 342 337 327 329 355 13 61 130 144 145 165 178 183 185 186 184 182 181 179 175 175 175 174 175 176 175 174 173 172 166 158 154 150 146 145 144 143 140 137 135 133 130 128 127 125 123 120 119 118 116 113 113 112 111 108 106 105 102 101 99 96 94 92 91 90 90
262 277 287 304 290 264 259 252 233 251 264 265 212 202 216 252 268 258 277 309 315 311 311 325 326 318 318 320 318 322 332 343 337 322 314 348 4 132 159 163 153 163 174 179 184 185 183 181 182 181 176 175 175 174 175 175 174 174 173 172 166 160 156 153 149 147 146 146 144 140 138 135 132 129 127 126 124 122 119 117 115 112 110 110 109 107 105 104 103 101 97 94 91 88 88 89 86
208 240 265 292 290 277 263 261 243 243 257 233 140 152 233 250 266 276 281 292 296 289 301 317 313 303 304 307 311 318 325 334 331 315 293 254 233 203 194 184 171 175 176 176 183 184 181 179 178 177 174 174 175 175 176 176 175 176 173 170 165 160 157 154 150 148 149 149 146 142 138 134 132 129 128 127 125 124 121 118 116 113 111 109 108 105 103 104 103 101 99 95 91 86 85 88 90
195 212 222 247 283 298 286 288 287 269 265 247 177 127 264 267 274 271 270 280 282 277 295 304 295 287 288 294 302 308 312 323 327 304 280 245 228 212 202 194 187 187 179 174 182 184 180 177 176 175 173 173 175 175 176 177 177 177 174 170 165 161 158 155 153 151 151 149 146 143 140 137 136 133 132 130 127 126 123 120 118 114 111 109 107 105 102 102 100 98 96 95 93 90 88 89 91
195 204 222 249 275 285 284 305 299 293 304 290 224 176 253 273 289 234 235 252 265 279 288 284 280 273 269 280 290 297 306 321 335 284 266 243 228 213 204 199 195 191 180 175 181 184 181 178 177 175 172 173 174 174 175 176 176 176 173 170 166 163 160 157 156 155 153 151 149 147 145 142 140 137 136 133 131 130 125 122 120 117 115 113 110 107 103 100 98 96 94 92 93 92 91 92 91
199 197 222 252 270 267 276 295 288 292 302 291 239 227 236 261 277 265 259 269 267 273 272 264 276 272 254 272 279 286 300 309 311 272 251 236 221 211 207 202 197 190 183 179 182 185 184 181 178 176 173 173 173 173 173 174 174 173 171 169 167 165 162 160 157 157 156 154 153 151 148 146 143 140 138 136 134 132 129 126 123 120 119 116 113 110 105 101 98 96 94 91 91 91 91 92 91
150 181 216 262 311 278 272 280 279 284 289 276 232 262 259 268 279 263 243 261 245 231 267 283 287 281 265 265 271 284 293 290 285 274 248 227 212 210 209 203 198 192 189 186 183 186 187 184 179 176 174 172 172 171 170 169 169 167 167 168 166 164 162 161 159 159 158 156 155 153 150 147 145 142 139 137 135 133 131 129 126 123 121 118 113 107 102 99 96 93 93 92 91 90 88 87 87
158 209 219 143 346 286 265 277 289 282 280 270 233 263 278 289 282 222 150 224 224 233 269 283 277 271 267 273 290 301 299 274 245 255 243 223 213 209 206 202 198 194 192 186 182 186 188 185 181 178 175 171 170 169 167 166 164 162 163 164 164 163 162 161 161 160 158 156 153 151 149 146 143 140 137 136 136 135 133 131 128 126 122 118 114 107 102 98 94 90 88 86 86 84 81 79 75
198 265 215 161 255 258 222 250 287 283 284 287 255 255 263 251 257 271 278 270 260 262 270 265 259 260 270 285 297 301 296 272 228 227 219 215 216 210 202 198 193 189 187 181 179 184 186 184 182 179 175 172 169 167 164 162 162 160 160 161 160 160 159 158 159 158 156 154 151 148 146 142 138 136 135 136 136 136 134 131 129 126 122 118 113 108 104 99 94 89 84 80 77 75 72 70 65
158 240 193 218 270 270 259 251 272 276 281 293 284 267 244 234 249 267 281 286 280 276 275 268 265 268 278 291 297 294 293 294 275 221 217 213 209 208 201 195 188 183 182 178 176 179 182 182 179 176 173 171 169 167 163 161 162 162 161 161 159 158 157 157 156 156 154 151 148 145 141 137 135 134 134 135 136 135 133 130 127 124 120 116 111 107 102 96 91 85 81 75 66 60 51 48 42
183 202 200 205 219 248 282 260 234 250 264 282 291 281 250 220 242 248 273 288 279 272 278 280 283 289 291 296 296 287 290 294 284 234 220 211 200 201 195 188 183 177 177 180 177 174 176 179 178 174 171 168 167 166 164 162 161 162 161 161 159 158 157 157 156 155 153 149 146 142 138 135 133 132 134 136 136 134 130 127 124 120 116 112 108 106 99 92 85 75 69 61 48 36 25 18 7
206 204 198 199 200 204 254 255 224 221 245 257 275 278 275 256 206 227 279 283 267 266 278 286 293 298 292 286 286 285 284 284 285 271 226 203 195 191 185 182 180 178 179 180 178 173 171 171 174 174 170 166 166 165 163 162 160 160 160 159 158 157 156 156 155 154 151 148 144 139 136 135 133 133 135 137 136 132 127 123 120 115 111 107 100 96 89 81 72 63 50 36 25 12 1 354 344